Weather History for KAAT - March, 2012

Change the Weather History Date:

Saturday, March 31, 2012

  Actual Average Record
Temperature  
Mean Temperature 42 °F 40 °F  
Max Temperature 52 °F 54 °F 81 °F (1966)
Min Temperature 32 °F 26 °F -8 °F (1917)
Degree Days  
Heating Degree Days 23 25  
Month to date heating degree days 828 824  
Since 1 July heating degree days 5483 5692  
Cooling Degree Days 0 0  
Month to date cooling degree days 0 0  
Year to date cooling degree days 0 0  
Moisture  
Dew Point 31 °F    
Average Humidity 72    
Maximum Humidity 100    
Minimum Humidity 44    
Precipitation  
Precipitation 0.04 in 0.05 in 0.43 in (1983)
Month to date precipitation 1.10 1.52  
Year to date precipitation 2.88 4.62  
Sea Level Pressure  
Sea Level Pressure 29.60 in    
Wind  
Wind Speed 18 mph (SSW)    
Max Wind Speed 41 mph    
Max Gust Speed 54 mph    
Visibility 7 miles    
Events Fog , Rain , Snow    
T = Trace of Precipitation, MM = Missing Value Source: NWS Daily Summary

Daily Weather History Graph

Daily Weather History Graph

Search for Another Location

Airport or City:

Trip Planner

Search our weather history database for the weather conditions in past years. The results will help you decide how hot, cold, wet, or windy it might be!

Date:

Astronomy

Mar. 31, 2012 Rise Set
Actual Time 6:45 AM PDT 7:27 PM PDT
Civil Twilight 6:18 AM PDT 7:55 PM PDT
Nautical Twilight 5:45 AM PDT 8:28 PM PDT
Astronomical Twilight 5:10 AM PDT 9:02 PM PDT
Moon 12:55 PM PDT (3/31) 2:50 AM PDT (3/31)
Length of Visible Light 13h 37m
Length of Day
12h 41m
First Quarter, 60% of the Moon is Illuminated
Mar 31
First Quarter
Apr 6
Full
Apr 13
Last Quarter
Apr 21
New
Apr 29
First Quarter

Hourly Weather History & Observations

Time (PDT) Temp. Windchill Dew Point Humidity Pressure Visibility Wind Dir Wind Speed Gust Speed Precip Events Conditions
12:55 AM 45.0 °F 39.7 °F 35.1 °F 68% 29.70 in 10.0 mi South 10.4 mph - N/A   Mostly Cloudy
1:55 AM 46.0 °F 40.2 °F 35.1 °F 66% 29.68 in 10.0 mi South 12.7 mph 21.9 mph N/A   Overcast
2:55 AM 45.0 °F 38.5 °F 34.0 °F 65% 29.64 in 10.0 mi South 13.8 mph - N/A   Mostly Cloudy
3:55 AM 45.0 °F 37.6 °F 34.0 °F 65% 29.62 in 10.0 mi South 17.3 mph - N/A   Scattered Clouds
4:55 AM 45.0 °F 37.1 °F 35.1 °F 68% 29.59 in 10.0 mi South 19.6 mph 25.3 mph N/A   Overcast
5:55 AM 44.1 °F 36.8 °F 36.0 °F 73% 29.56 in 10.0 mi South 16.1 mph 23.0 mph N/A   Overcast
6:55 AM 42.1 °F 36.1 °F 36.0 °F 79% 29.54 in 10.0 mi SSW 10.4 mph - N/A   Scattered Clouds
7:55 AM 46.0 °F 38.0 °F 34.0 °F 63% 29.48 in 10.0 mi South 21.9 mph 34.5 mph N/A   Partly Cloudy
8:55 AM 48.9 °F - 33.1 °F 54% 29.44 in 10.0 mi South 29.9 mph 47.2 mph N/A   Mostly Cloudy
9:55 AM 52.0 °F - 30.9 °F 45% 29.40 in 10.0 mi South 40.3 mph 51.8 mph N/A   Mostly Cloudy
10:55 AM 48.0 °F - 34.0 °F 58% 29.43 in 10.0 mi SSW 28.8 mph 44.9 mph 0.00 in Rain Light Rain
11:44 AM 37.4 °F 24.4 °F 33.8 °F 87% 29.56 in 1.8 mi WSW 33.4 mph 54.1 mph 0.01 in Rain Light Rain
11:47 AM 33.8 °F 20.3 °F 30.2 °F 87% 29.56 in 1.2 mi WSW 28.8 mph 54.1 mph 0.01 in Snow Light Snow
11:55 AM 34.0 °F 21.5 °F 32.0 °F 92% 29.57 in 1.0 mi WSW 24.2 mph 40.3 mph 0.01 in Snow Light Snow
11:58 AM 33.8 °F 21.0 °F 32.0 °F 93% 29.57 in 0.8 mi WSW 25.3 mph 36.8 mph 0.00 in Snow Light Snow
12:13 PM 33.8 °F 21.6 °F 32.0 °F 93% 29.56 in 0.5 mi West 23.0 mph 29.9 mph 0.01 in Fog , Snow Snow
12:25 PM 33.8 °F 21.6 °F 33.8 °F 100% 29.57 in 1.0 mi West 23.0 mph 31.1 mph 0.02 in Snow Light Snow
12:34 PM 33.8 °F 22.2 °F 33.8 °F 100% 29.57 in 2.5 mi West 20.7 mph 27.6 mph 0.02 in Snow Light Snow
12:55 PM 34.0 °F 24.6 °F 33.1 °F 96% 29.58 in 1.8 mi WSW 13.8 mph - 0.02 in Snow Light Snow
1:08 PM 35.6 °F 24.0 °F 33.8 °F 93% 29.60 in 3.0 mi WSW 23.0 mph 28.8 mph 0.00 in Snow Light Snow
1:43 PM 35.6 °F 24.8 °F 33.8 °F 93% 29.62 in 9.0 mi SW 19.6 mph 29.9 mph 0.00 in   Overcast
1:55 PM 36.0 °F 24.4 °F 33.1 °F 89% 29.61 in 6.0 mi SW 23.0 mph 28.8 mph 0.00 in Snow Light Snow
2:10 PM 35.6 °F 25.2 °F 33.8 °F 93% 29.62 in 2.5 mi WSW 18.4 mph 26.5 mph 0.00 in Snow Light Snow
2:20 PM 33.8 °F 22.5 °F 32.0 °F 93% 29.63 in 1.5 mi SW 19.6 mph 29.9 mph 0.00 in Snow Light Snow
2:39 PM 33.8 °F 22.5 °F 30.2 °F 87% 29.63 in 2.5 mi SW 19.6 mph 27.6 mph 0.01 in Snow Light Snow
2:51 PM 35.6 °F 25.2 °F 32.0 °F 87% 29.62 in 3.0 mi SW 18.4 mph 29.9 mph 0.01 in Snow Light Snow
2:55 PM 35.1 °F 24.1 °F 32.0 °F 89% 29.62 in 9.0 mi SW 19.6 mph 29.9 mph 0.01 in   Overcast
3:55 PM 39.0 °F 29.0 °F 30.9 °F 73% 29.60 in 10.0 mi South 20.7 mph 31.1 mph N/A   Clear
4:55 PM 42.1 °F 32.3 °F 28.0 °F 58% 29.59 in 10.0 mi South 24.2 mph 28.8 mph N/A   Mostly Cloudy
5:55 PM 39.0 °F 29.0 °F 23.0 °F 53% 29.61 in 10.0 mi SSW 20.7 mph 36.8 mph N/A   Mostly Cloudy
6:55 PM 37.0 °F 27.7 °F 24.1 °F 59% 29.63 in 10.0 mi SSW 16.1 mph 23.0 mph N/A   Partly Cloudy
7:55 PM 34.0 °F 26.0 °F 25.0 °F 70% 29.64 in 10.0 mi South 10.4 mph - N/A   Scattered Clouds
8:55 PM 32.0 °F 25.6 °F 25.0 °F 75% 29.65 in 10.0 mi SE 6.9 mph - N/A   Clear
9:55 PM 35.1 °F 27.4 °F 23.0 °F 61% 29.68 in 10.0 mi SSE 10.4 mph - N/A   Mostly Cloudy
10:55 PM 35.1 °F 25.2 °F 24.1 °F 64% 29.72 in 10.0 mi SSE 16.1 mph - N/A   Overcast
11:55 PM 35.1 °F 27.9 °F 24.1 °F 64% 29.77 in 10.0 mi SW 9.2 mph 18.4 mph N/A   Overcast